This is the latest recevied weather packets stored in our database for station/object F5BSF-11. If no packets are shown the sender has not sent any weather packets the latest 10 day(s).
| Time | Temp. | Humidity | Pressure | Rain* | Wind** | Luminosity | Snow |
|---|---|---|---|---|---|---|---|
| 1777823599 | 23.89° C | 43% | 992.6 hPa | - | - | - | - |
| 1777823475 | 24.44° C | 43% | 992.7 hPa | - | - | - | - |
| 1777818583 | 23.89° C | 45% | 993.5 hPa | - | - | - | - |
| 1777818433 | 23.33° C | 46% | 993.4 hPa | - | - | - | - |
| 1777818385 | 23.33° C | 47% | 993.4 hPa | - | - | - | - |
| 1777817746 | 23.33° C | 48% | 993.6 hPa | - | - | - | - |
| 1777817632 | 22.78° C | 46% | 993.6 hPa | - | - | - | - |
| 1777817604 | 22.78° C | 49% | 993.7 hPa | - | - | - | - |
| 1777817404 | 22.78° C | 49% | 993.6 hPa | - | - | - | - |
| 1777816504 | 22.78° C | 50% | 993.7 hPa | - | - | - | - |
| 1777815604 | 22.78° C | 50% | 993.8 hPa | - | - | - | - |
| 1777814703 | 22.22° C | 50% | 994 hPa | - | - | - | - |
| 1777813803 | 22.22° C | 51% | 994.2 hPa | - | - | - | - |
| 1777812903 | 23.33° C | 51% | 994.1 hPa | - | - | - | - |
| 1777812525 | 22.78° C | 51% | 994.3 hPa | - | - | - | - |
| 1777811625 | 22.22° C | 52% | 994.5 hPa | - | - | - | - |
| 1777810725 | 22.22° C | 51% | 994.5 hPa | - | - | - | - |
| 1777809825 | 22.22° C | 52% | 994.6 hPa | - | - | - | - |
| 1777808924 | 21.67° C | 52% | 994.9 hPa | - | - | - | - |
| 1777808024 | 21.67° C | 52% | 995 hPa | - | - | - | - |
| 1777807124 | 21.67° C | 52% | 995.1 hPa | - | - | - | - |
| 1777806224 | 22.22° C | 53% | 995.5 hPa | - | - | - | - |
| 1777805324 | 21.67° C | 53% | 995.6 hPa | - | - | - | - |
| 1777804423 | 22.22° C | 53% | 995.7 hPa | - | - | - | - |
| 1777803523 | 22.22° C | 53% | 995.6 hPa | - | - | - | - |
* Rain since midnight (hover to see other rain measurements)
** Current wind speed in m/s (hover to see current wind gust speed)